Starlink 4188

operational
NORAD ID: 52843 Int'l Des: 2022-062 Owner: SPXS Country: US Constellation: starlink
LEOCIRCULAR

About Starlink 4188

Description loading...

Live Position

Loading 3D Globe...

Upcoming Passes

Altitude History

Altitude vs Time

uPlot chart will show altitude changes over time

Two-Line Element Set

1 52843U 22062P 25257.98575584 .00000313 00000-0 37770-4 0 9991
2 52843 53.2167 102.8859 0001331 94.2547 265.8597 15.08840922179266
Epoch: Sep 14, 2025 • Age: 22 hours

Current Status

Altitude 557.4 km
Velocity 7.58 km/s
Sub-Earth Point -48.86°S, 20.66°E
Launch Date Jun 17, 2022
Age 3.2 years
Type internet

Technical Details

Classification Payload
Mass 297.00 kg
Dry Mass 275.00 kg
Total Mass 297.00 kg
Length 0.20 m
Diameter 2.80 m
Span 9.00 m
Shape Box + pan
Manufacturer SPXS
Bus Type Starlink
Phase Status In Orbit
Owner/State SPXS/US

Large Constellations

Loading constellations...